This is the latest recevied weather packets stored in our database for station/object KQ4WWD. If no packets are shown the sender has not sent any weather packets the latest 10 day(s).
| Time | Temp. | Humidity | Pressure | Rain* | Wind** | Luminosity | Snow |
|---|---|---|---|---|---|---|---|
| 1777506851 | 26.67° C | 74% | 1011.3 hPa | 0 mm | - | 5 W/m² | - |
| 1777506548 | 27.22° C | 73% | 1011.3 hPa | 0 mm | - | 10 W/m² | - |
| 1777506242 | 27.78° C | 71% | 1011.3 hPa | 0 mm | - | 15 W/m² | - |
| 1777505940 | 27.78° C | 70% | 1011.5 hPa | 0 mm | - | 21 W/m² | - |
| 1777505635 | 27.78° C | 69% | 1011.6 hPa | 0 mm | - | 25 W/m² | - |
| 1777505332 | 28.33° C | 68% | 1011.3 hPa | 0 mm | - | 30 W/m² | - |
| 1777505029 | 28.33° C | 68% | 1011.2 hPa | 0 mm | - | 35 W/m² | - |
| 1777504726 | 28.89° C | 66% | 1011.2 hPa | 0 mm | - | 39 W/m² | - |
| 1777504423 | 28.89° C | 64% | 1011.2 hPa | 0 mm | - | 51 W/m² | - |
| 1777504118 | 28.89° C | 64% | 1011 hPa | 0 mm | - | 65 W/m² | - |
| 1777503814 | 29.44° C | 61% | 1010.9 hPa | 0 mm | - | 76 W/m² | - |
| 1777503511 | 30° C | 60% | 1011.1 hPa | 0 mm | - | 90 W/m² | - |
| 1777503207 | 30° C | 57% | 1011.3 hPa | 0 mm | - | 105 W/m² | - |
| 1777502904 | 30.56° C | 56% | 1010.8 hPa | 0 mm | - | 123 W/m² | - |
| 1777502602 | 30.56° C | 56% | 1010.9 hPa | 0 mm | - | 140 W/m² | - |
| 1777502298 | 30.56° C | 56% | 1010.9 hPa | 0 mm | - | 150 W/m² | - |
| 1777501995 | 30.56° C | 56% | 1010.8 hPa | 0 mm | - | 168 W/m² | - |
| 1777501692 | 31.11° C | 56% | 1010.7 hPa | 0 mm | - | 185 W/m² | - |
| 1777501389 | 31.11° C | 55% | 1010.7 hPa | 0 mm | - | 200 W/m² | - |
| 1777501087 | 31.11° C | 55% | 1010.7 hPa | 0 mm | - | 212 W/m² | - |
| 1777500784 | 31.67° C | 54% | 1010.7 hPa | 0 mm | - | 201 W/m² | - |
| 1777500482 | 31.67° C | 53% | 1010.8 hPa | 0 mm | - | 216 W/m² | - |
| 1777500177 | 31.67° C | 53% | 1010.7 hPa | 0 mm | - | 250 W/m² | - |
| 1777499875 | 31.67° C | 53% | 1010.9 hPa | 0 mm | - | 262 W/m² | - |
| 1777499570 | 32.22° C | 52% | 1010.9 hPa | 0 mm | - | 278 W/m² | - |
* Rain latest hour (hover to see other rain measurements)
** Current wind speed in m/s (hover to see current wind gust speed)